sat.trackr.live / text

‹ back to catalog

STARLINK-3906

NORAD 52585 · 2022-051BB

PAYLOAD ACTIVE UNKNOWN

§ Identity

Operator
Country
US
Launch date
2022-05-13
Launch site
AFWTR
Launch vehicle
Mass (kg)
RCS (m²)

Purposes: comms

External: N2YO · Heavens-Above · Gunter

§ Orbital elements

Epoch: 2026-05-25T05:35:30.787872Z

Period
95.44 min
Inclination
53.2122°
Eccentricity
0.0001150
Mean motion
15.08848453 rev/d
Perigee alt
538.9 km
Apogee alt
540.5 km
Semi-major
6,917.9 km
B*
9.6709e-5
RAAN
135.4660°
Arg perigee
80.2373°
Mean anomaly
279.8749°
Rev number
22,314

§ Raw data

STARLINK-39061 52585U 22051BB  26145.23299523  .00001252  00000+0  96709-4 0  99922 52585  53.2122 135.4660 0001150  80.2373 279.8749 15.08848453223141

JSON: /api/v1/satellites/52585 · /tle

For live sub-satellite position, see the globe view (requires WebGL).

§ Visibility from observer

Set your observer location to see the next 7 days of passes ≥ 10°. The values pass through the URL so the page stays shareable.

No JS? Fill the form by hand. The geolocation button needs JavaScript.